Year,Month,Day,Hour,Minute,Value (Times are PST for temperature in C)
2016,06,07,00,00,19.30
2016,06,07,00,01,19.30
2016,06,07,00,02,19.20
2016,06,07,00,03,19.20
2016,06,07,00,04,19.10
2016,06,07,00,05,19.00
2016,06,07,00,06,19.00
2016,06,07,00,07,18.90
2016,06,07,00,08,18.80
2016,06,07,00,09,18.80
2016,06,07,00,10,18.70
2016,06,07,00,11,18.70
2016,06,07,00,12,18.60
2016,06,07,00,13,18.60
2016,06,07,00,14,18.50
2016,06,07,00,15,18.50
2016,06,07,00,16,18.50
2016,06,07,00,17,18.40
2016,06,07,00,18,18.40
2016,06,07,00,19,18.30
2016,06,07,00,20,18.30
2016,06,07,00,21,18.30
2016,06,07,00,22,18.20
2016,06,07,00,23,18.20
2016,06,07,00,24,18.20
2016,06,07,00,25,18.10
2016,06,07,00,26,18.10
2016,06,07,00,27,18.10
2016,06,07,00,28,18.00
2016,06,07,00,29,18.00
2016,06,07,00,30,17.90
2016,06,07,00,31,17.90
2016,06,07,00,32,17.90
2016,06,07,00,33,17.80
2016,06,07,00,34,17.80
2016,06,07,00,35,17.80
2016,06,07,00,36,17.70
2016,06,07,00,37,17.70
2016,06,07,00,38,17.70
2016,06,07,00,39,17.60
2016,06,07,00,40,17.50
2016,06,07,00,41,17.50
2016,06,07,00,42,17.40
2016,06,07,00,43,17.40
2016,06,07,00,44,17.40
2016,06,07,00,45,17.30
2016,06,07,00,46,17.30
2016,06,07,00,47,17.30
2016,06,07,00,48,17.20
2016,06,07,00,49,17.20
2016,06,07,00,50,17.20
2016,06,07,00,51,17.20
2016,06,07,00,52,17.20
2016,06,07,00,53,17.10
2016,06,07,00,54,17.10
2016,06,07,00,55,17.10
2016,06,07,00,56,17.10
2016,06,07,00,57,17.10
2016,06,07,00,58,17.10
2016,06,07,00,59,17.00
2016,06,07,01,00,17.00
2016,06,07,01,01,17.00
2016,06,07,01,02,16.90
2016,06,07,01,03,16.90
2016,06,07,01,04,16.90
2016,06,07,01,05,16.90
2016,06,07,01,06,16.90
2016,06,07,01,07,16.80
2016,06,07,01,08,16.80
2016,06,07,01,09,16.80
2016,06,07,01,10,16.80
2016,06,07,01,11,16.80
2016,06,07,01,12,16.80
2016,06,07,01,13,16.70
2016,06,07,01,14,16.70
2016,06,07,01,15,16.70
2016,06,07,01,16,16.70
2016,06,07,01,17,16.70
2016,06,07,01,18,16.70
2016,06,07,01,19,16.60
2016,06,07,01,20,16.60
2016,06,07,01,21,16.60
2016,06,07,01,22,16.60
2016,06,07,01,23,16.50
2016,06,07,01,24,16.50
2016,06,07,01,25,16.50
2016,06,07,01,26,16.40
2016,06,07,01,27,16.40
2016,06,07,01,28,16.40
2016,06,07,01,29,16.40
2016,06,07,01,30,16.40
2016,06,07,01,31,16.30
2016,06,07,01,32,16.30
2016,06,07,01,33,16.30
2016,06,07,01,34,16.20
2016,06,07,01,35,16.20
2016,06,07,01,36,16.20
2016,06,07,01,37,16.20
2016,06,07,01,38,16.20
2016,06,07,01,39,16.20
2016,06,07,01,40,16.10
2016,06,07,01,41,16.10
2016,06,07,01,42,16.10
2016,06,07,01,43,16.10
2016,06,07,01,44,16.10
2016,06,07,01,45,16.10
2016,06,07,01,46,16.20
2016,06,07,01,47,16.20
2016,06,07,01,48,16.30
2016,06,07,01,49,16.40
2016,06,07,01,50,16.50
2016,06,07,01,51,16.60
2016,06,07,01,52,16.60
2016,06,07,01,53,16.70
2016,06,07,01,54,16.80
2016,06,07,01,55,16.80
2016,06,07,01,56,16.90
2016,06,07,01,57,17.00
2016,06,07,01,58,17.00
2016,06,07,01,59,17.10
2016,06,07,02,00,17.10
2016,06,07,02,01,17.20
2016,06,07,02,02,17.20
2016,06,07,02,03,17.30
2016,06,07,02,04,17.30
2016,06,07,02,05,17.40
2016,06,07,02,06,17.40
2016,06,07,02,07,17.40
2016,06,07,02,08,17.40
2016,06,07,02,09,17.50
2016,06,07,02,10,17.50
2016,06,07,02,11,17.40
2016,06,07,02,12,17.40
2016,06,07,02,13,17.40
2016,06,07,02,14,17.30
2016,06,07,02,15,17.30
2016,06,07,02,16,17.30
2016,06,07,02,17,17.30
2016,06,07,02,18,17.20
2016,06,07,02,19,17.20
2016,06,07,02,20,17.20
2016,06,07,02,21,17.20
2016,06,07,02,22,17.20
2016,06,07,02,23,17.30
2016,06,07,02,24,17.30
2016,06,07,02,25,17.30
2016,06,07,02,26,17.30
2016,06,07,02,27,17.30
2016,06,07,02,28,17.30
2016,06,07,02,29,17.30
2016,06,07,02,30,17.40
2016,06,07,02,31,17.40
2016,06,07,02,32,17.40
2016,06,07,02,33,17.50
2016,06,07,02,34,17.50
2016,06,07,02,35,17.50
2016,06,07,02,36,17.60
2016,06,07,02,37,17.60
2016,06,07,02,38,17.60
2016,06,07,02,39,17.60
2016,06,07,02,40,17.60
2016,06,07,02,41,17.60
2016,06,07,02,42,17.60
2016,06,07,02,43,17.60
2016,06,07,02,44,17.50
2016,06,07,02,45,17.50
2016,06,07,02,46,17.50
2016,06,07,02,47,17.50
2016,06,07,02,48,17.50
2016,06,07,02,49,17.50
2016,06,07,02,50,17.50
2016,06,07,02,51,17.40
2016,06,07,02,52,17.40
2016,06,07,02,53,17.40
2016,06,07,02,54,17.40
2016,06,07,02,55,17.30
2016,06,07,02,56,17.30
2016,06,07,02,57,17.20
2016,06,07,02,58,17.20
2016,06,07,02,59,17.20
2016,06,07,03,00,17.10
2016,06,07,03,01,17.10
2016,06,07,03,02,17.10
2016,06,07,03,03,17.00
2016,06,07,03,04,17.00
2016,06,07,03,05,16.90
2016,06,07,03,06,16.90
2016,06,07,03,07,16.90
2016,06,07,03,08,16.90
2016,06,07,03,09,16.90
2016,06,07,03,10,16.90
2016,06,07,03,11,16.90
2016,06,07,03,12,16.90
2016,06,07,03,13,16.90
2016,06,07,03,14,16.90
2016,06,07,03,15,16.90
2016,06,07,03,16,16.90
2016,06,07,03,17,16.80
2016,06,07,03,18,16.80
2016,06,07,03,19,16.80
2016,06,07,03,20,16.80
2016,06,07,03,21,16.80
2016,06,07,03,22,16.80
2016,06,07,03,23,16.80
2016,06,07,03,24,16.80
2016,06,07,03,25,16.80
2016,06,07,03,26,16.80
2016,06,07,03,27,16.80
2016,06,07,03,28,16.80
2016,06,07,03,29,16.70
2016,06,07,03,30,16.70
2016,06,07,03,31,16.70
2016,06,07,03,32,16.70
2016,06,07,03,33,16.70
2016,06,07,03,34,16.70
2016,06,07,03,35,16.60
2016,06,07,03,36,16.60
2016,06,07,03,37,16.60
2016,06,07,03,38,16.50
2016,06,07,03,39,16.50
2016,06,07,03,40,16.50
2016,06,07,03,41,16.40
2016,06,07,03,42,16.40
2016,06,07,03,43,16.40
2016,06,07,03,44,16.40
2016,06,07,03,45,16.30
2016,06,07,03,46,16.30
2016,06,07,03,47,16.30
2016,06,07,03,48,16.20
2016,06,07,03,49,16.20
2016,06,07,03,50,16.20
2016,06,07,03,51,16.10
2016,06,07,03,52,16.10
2016,06,07,03,53,16.10
2016,06,07,03,54,16.00
2016,06,07,03,55,16.00
2016,06,07,03,56,16.00
2016,06,07,03,57,15.90
2016,06,07,03,58,15.90
2016,06,07,03,59,15.90
2016,06,07,04,00,15.80
2016,06,07,04,01,15.80
2016,06,07,04,02,15.70
2016,06,07,04,03,15.70
2016,06,07,04,04,15.60
2016,06,07,04,05,15.60
2016,06,07,04,06,15.50
2016,06,07,04,07,15.50
2016,06,07,04,08,15.40
2016,06,07,04,09,15.40
2016,06,07,04,10,15.40
2016,06,07,04,11,15.30
2016,06,07,04,12,15.30
2016,06,07,04,13,15.30
2016,06,07,04,14,15.20
2016,06,07,04,15,15.20
2016,06,07,04,16,15.20
2016,06,07,04,17,15.10
2016,06,07,04,18,15.10
2016,06,07,04,19,15.00
2016,06,07,04,20,15.00
2016,06,07,04,21,15.00
2016,06,07,04,22,15.00
2016,06,07,04,23,15.00
2016,06,07,04,24,15.00
2016,06,07,04,25,15.00
2016,06,07,04,26,15.00
2016,06,07,04,27,15.00
2016,06,07,04,28,15.00
2016,06,07,04,29,15.00
2016,06,07,04,30,15.00
2016,06,07,04,31,15.00
2016,06,07,04,32,15.00
2016,06,07,04,33,15.00
2016,06,07,04,34,15.00
2016,06,07,04,35,15.00
2016,06,07,04,36,15.00
2016,06,07,04,37,15.00
2016,06,07,04,38,15.00
2016,06,07,04,39,15.00
2016,06,07,04,40,15.00
2016,06,07,04,41,15.00
2016,06,07,04,42,15.00
2016,06,07,04,43,15.10
2016,06,07,04,44,15.10
2016,06,07,04,45,15.10
2016,06,07,04,46,15.10
2016,06,07,04,47,15.10
2016,06,07,04,48,15.00
2016,06,07,04,49,15.00
2016,06,07,04,50,15.00
2016,06,07,04,51,15.00
2016,06,07,04,52,15.00
2016,06,07,04,53,15.00
2016,06,07,04,54,15.00
2016,06,07,04,55,15.00
2016,06,07,04,56,15.00
2016,06,07,04,57,15.00
2016,06,07,04,58,15.00
2016,06,07,04,59,15.00
2016,06,07,05,00,15.00
2016,06,07,05,01,15.00
2016,06,07,05,02,15.00
2016,06,07,05,03,15.00
2016,06,07,05,04,15.00
2016,06,07,05,05,15.00
2016,06,07,05,06,15.00
2016,06,07,05,07,15.00
2016,06,07,05,08,14.90
2016,06,07,05,09,14.90
2016,06,07,05,10,14.90
2016,06,07,05,11,14.90
2016,06,07,05,12,14.90
2016,06,07,05,13,14.80
2016,06,07,05,14,14.80
2016,06,07,05,15,14.70
2016,06,07,05,16,14.70
2016,06,07,05,17,14.60
2016,06,07,05,18,14.60
2016,06,07,05,19,14.60
2016,06,07,05,20,14.50
2016,06,07,05,21,14.40
2016,06,07,05,22,14.40
2016,06,07,05,23,14.40
2016,06,07,05,24,14.30
2016,06,07,05,25,14.30
2016,06,07,05,26,14.20
2016,06,07,05,27,14.20
2016,06,07,05,28,14.20
2016,06,07,05,29,14.10
2016,06,07,05,30,14.10
2016,06,07,05,31,14.10
2016,06,07,05,32,14.10
2016,06,07,05,33,14.10
2016,06,07,05,34,14.10
2016,06,07,05,35,14.00
2016,06,07,05,36,14.00
2016,06,07,05,37,14.00
2016,06,07,05,38,14.00
2016,06,07,05,39,14.00
2016,06,07,05,40,13.90
2016,06,07,05,41,13.90
2016,06,07,05,42,13.90
2016,06,07,05,43,13.90
2016,06,07,05,44,13.90
2016,06,07,05,45,13.90
2016,06,07,05,46,13.90
2016,06,07,05,47,13.90
2016,06,07,05,48,13.90
2016,06,07,05,49,13.90
2016,06,07,05,50,13.90
2016,06,07,05,51,13.90
2016,06,07,05,52,13.80
2016,06,07,05,53,13.80
2016,06,07,05,54,13.80
2016,06,07,05,55,13.80
2016,06,07,05,56,13.80
2016,06,07,05,57,13.80
2016,06,07,05,58,13.80
2016,06,07,05,59,13.80
2016,06,07,06,00,13.80
2016,06,07,06,01,13.80
2016,06,07,06,02,13.90
2016,06,07,06,03,13.90
2016,06,07,06,04,13.90
2016,06,07,06,05,13.90
2016,06,07,06,06,14.00
2016,06,07,06,07,14.00
2016,06,07,06,08,14.00
2016,06,07,06,09,14.10
2016,06,07,06,10,14.10
2016,06,07,06,11,14.20
2016,06,07,06,12,14.20
2016,06,07,06,13,14.30
2016,06,07,06,14,14.30
2016,06,07,06,15,14.30
2016,06,07,06,16,14.40
2016,06,07,06,17,14.40
2016,06,07,06,18,14.40
2016,06,07,06,19,14.40
2016,06,07,06,20,14.50
2016,06,07,06,21,14.50
2016,06,07,06,22,14.50
2016,06,07,06,23,14.60
2016,06,07,06,24,14.60
2016,06,07,06,25,14.60
2016,06,07,06,26,14.60
2016,06,07,06,27,14.60
2016,06,07,06,28,14.60
2016,06,07,06,29,14.70
2016,06,07,06,30,14.70
2016,06,07,06,31,14.70
2016,06,07,06,32,14.70
2016,06,07,06,33,14.70
2016,06,07,06,34,14.70
2016,06,07,06,35,14.70
2016,06,07,06,36,14.70
2016,06,07,06,37,14.80
2016,06,07,06,38,14.80
2016,06,07,06,39,14.80
2016,06,07,06,40,14.80
2016,06,07,06,41,14.90
2016,06,07,06,42,14.90
2016,06,07,06,43,15.00
2016,06,07,06,44,15.00
2016,06,07,06,45,15.00
2016,06,07,06,46,15.00
2016,06,07,06,47,15.00
2016,06,07,06,48,15.00
2016,06,07,06,49,15.00
2016,06,07,06,50,15.00
2016,06,07,06,51,15.00
2016,06,07,06,52,15.00
2016,06,07,06,53,15.00
2016,06,07,06,54,15.10
2016,06,07,06,55,15.10
2016,06,07,06,56,15.20
2016,06,07,06,57,15.20
2016,06,07,06,58,15.30
2016,06,07,06,59,15.30
2016,06,07,07,00,15.30
2016,06,07,07,01,15.30
2016,06,07,07,02,15.40
2016,06,07,07,03,15.40
2016,06,07,07,04,15.40
2016,06,07,07,05,15.40
2016,06,07,07,06,15.50
2016,06,07,07,07,15.50
2016,06,07,07,08,15.60
2016,06,07,07,09,15.60
2016,06,07,07,10,15.60
2016,06,07,07,11,15.70
2016,06,07,07,12,15.70
2016,06,07,07,13,15.70
2016,06,07,07,14,15.80
2016,06,07,07,15,15.80
2016,06,07,07,16,15.80
2016,06,07,07,17,15.80
2016,06,07,07,18,15.80
2016,06,07,07,19,15.90
2016,06,07,07,20,15.90
2016,06,07,07,21,15.90
2016,06,07,07,22,15.90
2016,06,07,07,23,15.90
2016,06,07,07,24,15.90
2016,06,07,07,25,16.00
2016,06,07,07,26,16.00
2016,06,07,07,27,16.10
2016,06,07,07,28,16.10
2016,06,07,07,29,16.10
2016,06,07,07,30,16.10
2016,06,07,07,31,16.20
2016,06,07,07,32,16.20
2016,06,07,07,33,16.20
2016,06,07,07,34,16.30
2016,06,07,07,35,16.30
2016,06,07,07,36,16.30
2016,06,07,07,37,16.30
2016,06,07,07,38,16.30
2016,06,07,07,39,16.30
2016,06,07,07,40,16.30
2016,06,07,07,41,16.30
2016,06,07,07,42,16.30
2016,06,07,07,43,16.40
2016,06,07,07,44,16.40
2016,06,07,07,45,16.40
2016,06,07,07,46,16.50
2016,06,07,07,47,16.50
2016,06,07,07,48,16.50
2016,06,07,07,49,16.50
2016,06,07,07,50,16.50
2016,06,07,07,51,16.50
2016,06,07,07,52,16.50
2016,06,07,07,53,16.50
2016,06,07,07,54,16.40
2016,06,07,07,55,16.40
2016,06,07,07,56,16.40
2016,06,07,07,57,16.40
2016,06,07,07,58,16.40
2016,06,07,07,59,16.40
2016,06,07,08,00,16.50
2016,06,07,08,01,16.50
2016,06,07,08,02,16.60
2016,06,07,08,03,16.60
2016,06,07,08,04,16.60
2016,06,07,08,05,16.70
2016,06,07,08,06,16.70
2016,06,07,08,07,16.70
2016,06,07,08,08,16.70
2016,06,07,08,09,16.70
2016,06,07,08,10,16.80
2016,06,07,08,11,16.80
2016,06,07,08,12,16.80
2016,06,07,08,13,16.90
2016,06,07,08,14,16.90
2016,06,07,08,15,16.90
2016,06,07,08,16,16.90
2016,06,07,08,17,16.80
2016,06,07,08,18,16.80
2016,06,07,08,19,16.90
2016,06,07,08,20,16.90
2016,06,07,08,21,16.80
2016,06,07,08,22,16.80
2016,06,07,08,23,16.80
2016,06,07,08,24,16.90
2016,06,07,08,25,16.90
2016,06,07,08,26,16.90
2016,06,07,08,27,16.90
2016,06,07,08,28,16.90
2016,06,07,08,29,16.90
2016,06,07,08,30,16.90
2016,06,07,08,31,16.80
2016,06,07,08,32,16.80
2016,06,07,08,33,16.70
2016,06,07,08,34,16.70
2016,06,07,08,35,16.70
2016,06,07,08,36,16.70
2016,06,07,08,37,16.70
2016,06,07,08,38,16.60
2016,06,07,08,39,16.70
2016,06,07,08,40,16.70
2016,06,07,08,41,16.70
2016,06,07,08,42,16.80
2016,06,07,08,43,16.80
2016,06,07,08,44,16.90
2016,06,07,08,45,16.90
2016,06,07,08,46,16.90
2016,06,07,08,47,16.90
2016,06,07,08,48,16.90
2016,06,07,08,49,16.80
2016,06,07,08,50,16.80
2016,06,07,08,51,16.80
2016,06,07,08,52,16.90
2016,06,07,08,53,16.90
2016,06,07,08,54,17.00
2016,06,07,08,55,17.10
2016,06,07,08,56,17.10
2016,06,07,08,57,17.10
2016,06,07,08,58,17.10
2016,06,07,08,59,17.10
2016,06,07,09,00,17.20
2016,06,07,09,01,17.20
2016,06,07,09,02,17.20
2016,06,07,09,03,17.20
2016,06,07,09,04,17.20
2016,06,07,09,05,17.20
2016,06,07,09,06,17.20
2016,06,07,09,07,17.20
2016,06,07,09,08,17.20
2016,06,07,09,09,17.30
2016,06,07,09,10,17.30
2016,06,07,09,11,17.30
2016,06,07,09,12,17.30
2016,06,07,09,13,17.30
2016,06,07,09,14,17.30
2016,06,07,09,15,17.40
2016,06,07,09,16,17.40
2016,06,07,09,17,17.40
2016,06,07,09,18,17.40
2016,06,07,09,19,17.40
2016,06,07,09,20,17.40
2016,06,07,09,21,17.40
2016,06,07,09,22,17.40
2016,06,07,09,23,17.40
2016,06,07,09,24,17.40
2016,06,07,09,25,17.30
2016,06,07,09,26,17.30
2016,06,07,09,27,17.20
2016,06,07,09,28,17.20
2016,06,07,09,29,17.10
2016,06,07,09,30,17.10
2016,06,07,09,31,17.10
2016,06,07,09,32,17.10
2016,06,07,09,33,17.10
2016,06,07,09,34,17.00
2016,06,07,09,35,17.00
2016,06,07,09,36,16.90
2016,06,07,09,37,16.90
2016,06,07,09,38,16.90
2016,06,07,09,39,16.90
2016,06,07,09,40,16.90
2016,06,07,09,41,16.90
2016,06,07,09,42,17.00
2016,06,07,09,43,17.10
2016,06,07,09,44,17.10
2016,06,07,09,45,17.10
2016,06,07,09,46,17.10
2016,06,07,09,47,17.10
2016,06,07,09,48,17.20
2016,06,07,09,49,17.20
2016,06,07,09,50,17.20
2016,06,07,09,51,17.20
2016,06,07,09,52,17.30
2016,06,07,09,53,17.30
2016,06,07,09,54,17.30
2016,06,07,09,55,17.20
2016,06,07,09,56,17.10
2016,06,07,09,57,17.00
2016,06,07,09,58,17.00
2016,06,07,09,59,16.90
2016,06,07,10,00,16.90
2016,06,07,10,01,16.90
2016,06,07,10,02,16.90
2016,06,07,10,03,16.90
2016,06,07,10,04,16.90
2016,06,07,10,05,16.90
2016,06,07,10,06,16.90
2016,06,07,10,07,16.90
2016,06,07,10,08,16.90
2016,06,07,10,09,16.90
2016,06,07,10,10,16.80
2016,06,07,10,11,16.70
2016,06,07,10,12,16.70
2016,06,07,10,13,16.70
2016,06,07,10,14,16.70
2016,06,07,10,15,16.80
2016,06,07,10,16,16.80
2016,06,07,10,17,16.80
2016,06,07,10,18,16.80
2016,06,07,10,19,16.70
2016,06,07,10,20,16.70
2016,06,07,10,21,16.70
2016,06,07,10,22,16.70
2016,06,07,10,23,16.70
2016,06,07,10,24,16.70
2016,06,07,10,25,16.70
2016,06,07,10,26,16.70
2016,06,07,10,27,16.70
2016,06,07,10,28,16.70
2016,06,07,10,29,16.80
2016,06,07,10,30,16.80
2016,06,07,10,31,16.80
2016,06,07,10,32,16.80
2016,06,07,10,33,16.80
2016,06,07,10,34,16.90
2016,06,07,10,35,16.80
2016,06,07,10,36,16.80
2016,06,07,10,37,16.80
2016,06,07,10,38,16.80
2016,06,07,10,39,16.80
2016,06,07,10,40,16.80
2016,06,07,10,41,16.80
2016,06,07,10,42,16.80
2016,06,07,10,43,16.80
2016,06,07,10,44,16.80
2016,06,07,10,45,16.80
2016,06,07,10,46,16.80
2016,06,07,10,47,16.80
2016,06,07,10,48,16.80
2016,06,07,10,49,16.90
2016,06,07,10,50,17.00
2016,06,07,10,51,17.00
2016,06,07,10,52,17.10
2016,06,07,10,53,17.10
2016,06,07,10,54,17.20
2016,06,07,10,55,17.20
2016,06,07,10,56,17.30
2016,06,07,10,57,17.40
2016,06,07,10,58,17.50
2016,06,07,10,59,17.50
2016,06,07,11,00,17.50
2016,06,07,11,01,17.50
2016,06,07,11,02,17.50
2016,06,07,11,03,17.50
2016,06,07,11,04,17.50
2016,06,07,11,05,17.50
2016,06,07,11,06,17.60
2016,06,07,11,07,17.60
2016,06,07,11,08,17.70
2016,06,07,11,09,17.80
2016,06,07,11,10,17.80
2016,06,07,11,11,17.80
2016,06,07,11,12,17.90
2016,06,07,11,13,17.90
2016,06,07,11,14,17.90
2016,06,07,11,15,17.80
2016,06,07,11,16,17.80
2016,06,07,11,17,17.80
2016,06,07,11,18,17.80
2016,06,07,11,19,17.80
2016,06,07,11,20,17.90
2016,06,07,11,21,17.90
2016,06,07,11,22,18.00
2016,06,07,11,23,18.00
2016,06,07,11,24,18.10
2016,06,07,11,25,18.00
2016,06,07,11,26,18.00
2016,06,07,11,27,17.90
2016,06,07,11,28,17.90
2016,06,07,11,29,17.90
2016,06,07,11,30,17.90
2016,06,07,11,31,17.90
2016,06,07,11,32,17.90
2016,06,07,11,33,17.80
2016,06,07,11,34,17.80
2016,06,07,11,35,17.90
2016,06,07,11,36,18.00
2016,06,07,11,37,18.00
2016,06,07,11,38,18.10
2016,06,07,11,39,18.20
2016,06,07,11,40,18.20
2016,06,07,11,41,18.30
2016,06,07,11,42,18.30
2016,06,07,11,43,18.20
2016,06,07,11,44,18.20
2016,06,07,11,45,18.20
2016,06,07,11,46,18.10
2016,06,07,11,47,18.10
2016,06,07,11,48,18.00
2016,06,07,11,49,18.00
2016,06,07,11,50,17.90
2016,06,07,11,51,17.90
2016,06,07,11,52,17.90
2016,06,07,11,53,17.90
2016,06,07,11,54,17.90
2016,06,07,11,55,17.90
2016,06,07,11,56,18.00
2016,06,07,11,57,18.10
2016,06,07,11,58,18.10
2016,06,07,11,59,18.10
2016,06,07,12,00,18.00
2016,06,07,12,01,18.10
2016,06,07,12,02,18.10
2016,06,07,12,03,18.20
2016,06,07,12,04,18.20
2016,06,07,12,05,18.20
2016,06,07,12,06,18.20
2016,06,07,12,07,18.20
2016,06,07,12,08,18.20
2016,06,07,12,09,18.30
2016,06,07,12,10,18.30
2016,06,07,12,11,18.30
2016,06,07,12,12,18.30
2016,06,07,12,13,18.30
2016,06,07,12,14,18.30
2016,06,07,12,15,18.30
2016,06,07,12,16,18.40
2016,06,07,12,17,18.40
2016,06,07,12,18,18.40
2016,06,07,12,19,18.40
2016,06,07,12,20,18.40
2016,06,07,12,21,18.40
2016,06,07,12,22,18.30
2016,06,07,12,23,18.30
2016,06,07,12,24,18.30
2016,06,07,12,25,18.30
2016,06,07,12,26,18.40
2016,06,07,12,27,18.40
2016,06,07,12,28,18.40
2016,06,07,12,29,18.40
2016,06,07,12,30,18.50
2016,06,07,12,31,18.50
2016,06,07,12,32,18.60
2016,06,07,12,33,18.70
2016,06,07,12,34,18.80
2016,06,07,12,35,18.80
2016,06,07,12,36,18.80
2016,06,07,12,37,18.90
2016,06,07,12,38,19.00
2016,06,07,12,39,19.20
2016,06,07,12,40,19.30
2016,06,07,12,41,19.40
2016,06,07,12,42,19.50
2016,06,07,12,43,19.50
2016,06,07,12,44,19.60
2016,06,07,12,45,19.60
2016,06,07,12,46,19.70
2016,06,07,12,47,19.70
2016,06,07,12,48,19.70
2016,06,07,12,49,19.80
2016,06,07,12,50,19.80
2016,06,07,12,51,19.90
2016,06,07,12,52,19.90
2016,06,07,12,53,19.90
2016,06,07,12,54,19.90
2016,06,07,12,55,20.00
2016,06,07,12,56,20.10
2016,06,07,12,57,20.20
2016,06,07,12,58,20.30
2016,06,07,12,59,20.30
2016,06,07,13,00,20.40
2016,06,07,13,01,20.40
2016,06,07,13,02,20.40
2016,06,07,13,03,20.40
2016,06,07,13,04,20.40
2016,06,07,13,05,20.40
2016,06,07,13,06,20.50
2016,06,07,13,07,20.50
2016,06,07,13,08,20.60
2016,06,07,13,09,20.60
2016,06,07,13,10,20.60
2016,06,07,13,11,20.70
2016,06,07,13,12,20.70
2016,06,07,13,13,20.70
2016,06,07,13,14,20.80
2016,06,07,13,15,20.80
2016,06,07,13,16,20.80
2016,06,07,13,17,20.80
2016,06,07,13,18,20.80
2016,06,07,13,19,20.90
2016,06,07,13,20,20.90
2016,06,07,13,21,21.00
2016,06,07,13,22,21.00
2016,06,07,13,23,21.10
2016,06,07,13,24,21.10
2016,06,07,13,25,21.10
2016,06,07,13,26,21.10
2016,06,07,13,27,21.20
2016,06,07,13,28,21.20
2016,06,07,13,29,21.30
2016,06,07,13,30,21.40
2016,06,07,13,31,21.40
2016,06,07,13,32,21.40
2016,06,07,13,33,21.40
2016,06,07,13,34,21.40
2016,06,07,13,35,21.40
2016,06,07,13,36,21.40
2016,06,07,13,37,21.30
2016,06,07,13,38,21.30
2016,06,07,13,39,21.20
2016,06,07,13,40,21.10
2016,06,07,13,41,21.10
2016,06,07,13,42,21.00
2016,06,07,13,43,20.90
2016,06,07,13,44,20.70
2016,06,07,13,45,20.60
2016,06,07,13,46,20.50
2016,06,07,13,47,20.40
2016,06,07,13,48,20.30
2016,06,07,13,49,20.20
2016,06,07,13,50,20.20
2016,06,07,13,51,20.10
2016,06,07,13,52,20.10
2016,06,07,13,53,20.00
2016,06,07,13,54,20.00
2016,06,07,13,55,20.10
2016,06,07,13,56,20.10
2016,06,07,13,57,20.10
2016,06,07,13,58,20.10
2016,06,07,13,59,20.10
2016,06,07,14,00,20.10
2016,06,07,14,01,20.20
2016,06,07,14,02,20.20
2016,06,07,14,03,20.20
2016,06,07,14,04,20.10
2016,06,07,14,05,20.10
2016,06,07,14,06,20.10
2016,06,07,14,07,20.10
2016,06,07,14,08,20.20
2016,06,07,14,09,20.20
2016,06,07,14,10,20.20
2016,06,07,14,11,20.30
2016,06,07,14,12,20.40
2016,06,07,14,13,20.50
2016,06,07,14,14,20.50
2016,06,07,14,15,20.50
2016,06,07,14,16,20.60
2016,06,07,14,17,20.60
2016,06,07,14,18,20.60
2016,06,07,14,19,20.50
2016,06,07,14,20,20.40
2016,06,07,14,21,20.30
2016,06,07,14,22,20.20
2016,06,07,14,23,20.20
2016,06,07,14,24,20.20
2016,06,07,14,25,20.20
2016,06,07,14,26,20.20
2016,06,07,14,27,20.30
2016,06,07,14,28,20.30
2016,06,07,14,29,20.30
2016,06,07,14,30,20.30
2016,06,07,14,31,20.30
2016,06,07,14,32,20.30
2016,06,07,14,33,20.30
2016,06,07,14,34,20.40
2016,06,07,14,35,20.40
2016,06,07,14,36,20.50
2016,06,07,14,37,20.60
2016,06,07,14,38,20.60
2016,06,07,14,39,20.60
2016,06,07,14,40,20.60
2016,06,07,14,41,20.70
2016,06,07,14,42,20.70
2016,06,07,14,43,20.70
2016,06,07,14,44,20.80
2016,06,07,14,45,20.90
2016,06,07,14,46,20.90
2016,06,07,14,47,21.00
2016,06,07,14,48,21.10
2016,06,07,14,49,21.10
2016,06,07,14,50,21.20
2016,06,07,14,51,21.20
2016,06,07,14,52,21.20
2016,06,07,14,53,21.20
2016,06,07,14,54,21.20
2016,06,07,14,55,21.20
2016,06,07,14,56,21.20
2016,06,07,14,57,21.20
2016,06,07,14,58,21.20
2016,06,07,14,59,21.20
2016,06,07,15,00,21.30
2016,06,07,15,01,21.30
2016,06,07,15,02,21.30
2016,06,07,15,03,21.40
2016,06,07,15,04,21.40
2016,06,07,15,05,21.50
2016,06,07,15,06,21.60
2016,06,07,15,07,21.70
2016,06,07,15,08,21.70
2016,06,07,15,09,21.70
2016,06,07,15,10,21.70
2016,06,07,15,11,21.60
2016,06,07,15,12,21.60
2016,06,07,15,13,21.60
2016,06,07,15,14,21.60
2016,06,07,15,15,21.60
2016,06,07,15,16,21.50
2016,06,07,15,17,21.40
2016,06,07,15,18,21.40
2016,06,07,15,19,21.30
2016,06,07,15,20,21.30
2016,06,07,15,21,21.30
2016,06,07,15,22,21.30
2016,06,07,15,23,21.20
2016,06,07,15,24,21.20
2016,06,07,15,25,21.20
2016,06,07,15,26,21.20
2016,06,07,15,27,21.20
2016,06,07,15,28,21.20
2016,06,07,15,29,21.10
2016,06,07,15,30,21.10
2016,06,07,15,31,21.10
2016,06,07,15,32,21.10
2016,06,07,15,33,21.10
2016,06,07,15,34,21.10
2016,06,07,15,35,21.10
2016,06,07,15,36,21.10
2016,06,07,15,37,21.10
2016,06,07,15,38,21.20
2016,06,07,15,39,21.30
2016,06,07,15,40,21.40
2016,06,07,15,41,21.50
2016,06,07,15,42,21.60
2016,06,07,15,43,21.60
2016,06,07,15,44,21.70
2016,06,07,15,45,21.70
2016,06,07,15,46,21.70
2016,06,07,15,47,21.80
2016,06,07,15,48,21.80
2016,06,07,15,49,21.80
2016,06,07,15,50,21.90
2016,06,07,15,51,22.00
2016,06,07,15,52,22.10
2016,06,07,15,53,22.20
2016,06,07,15,54,22.30
2016,06,07,15,55,22.50
2016,06,07,15,56,22.60
2016,06,07,15,57,22.70
2016,06,07,15,58,22.80
2016,06,07,15,59,22.80
2016,06,07,16,00,22.90
2016,06,07,16,01,22.90
2016,06,07,16,02,22.90
2016,06,07,16,03,23.00
2016,06,07,16,04,23.10
2016,06,07,16,05,23.20
2016,06,07,16,06,23.30
2016,06,07,16,07,23.30
2016,06,07,16,08,23.30
2016,06,07,16,09,23.40
2016,06,07,16,10,23.40
2016,06,07,16,11,23.50
2016,06,07,16,12,23.60
2016,06,07,16,13,23.60
2016,06,07,16,14,23.70
2016,06,07,16,15,23.70
2016,06,07,16,16,23.70
2016,06,07,16,17,23.80
2016,06,07,16,18,23.80
2016,06,07,16,19,23.80
2016,06,07,16,20,23.90
2016,06,07,16,21,23.90
2016,06,07,16,22,23.90
2016,06,07,16,23,23.90
2016,06,07,16,24,23.80
2016,06,07,16,25,23.80
2016,06,07,16,26,23.80
2016,06,07,16,27,23.80
2016,06,07,16,28,23.80
2016,06,07,16,29,23.70
2016,06,07,16,30,23.60
2016,06,07,16,31,23.40
2016,06,07,16,32,23.20
2016,06,07,16,33,22.90
2016,06,07,16,34,22.70
2016,06,07,16,35,22.60
2016,06,07,16,36,22.50
2016,06,07,16,37,22.40
2016,06,07,16,38,22.30
2016,06,07,16,39,22.10
2016,06,07,16,40,22.00
2016,06,07,16,41,21.90
2016,06,07,16,42,21.80
2016,06,07,16,43,21.80
2016,06,07,16,44,21.80
2016,06,07,16,45,21.80
2016,06,07,16,46,21.70
2016,06,07,16,47,21.70
2016,06,07,16,48,21.70
2016,06,07,16,49,21.70
2016,06,07,16,50,21.70
2016,06,07,16,51,21.70
2016,06,07,16,52,21.70
2016,06,07,16,53,21.70
2016,06,07,16,54,21.70
2016,06,07,16,55,21.60
2016,06,07,16,56,21.50
2016,06,07,16,57,21.40
2016,06,07,16,58,21.40
2016,06,07,16,59,21.30
2016,06,07,17,00,21.20
2016,06,07,17,01,21.20
2016,06,07,17,02,21.10
2016,06,07,17,03,20.90
2016,06,07,17,04,20.80
2016,06,07,17,05,20.80
2016,06,07,17,06,20.80
2016,06,07,17,07,20.80
2016,06,07,17,08,20.80
2016,06,07,17,09,20.80
2016,06,07,17,10,20.70
2016,06,07,17,11,20.70
2016,06,07,17,12,20.70
2016,06,07,17,13,20.70
2016,06,07,17,14,20.80
2016,06,07,17,15,20.80
2016,06,07,17,16,20.80
2016,06,07,17,17,20.90
2016,06,07,17,18,20.90
2016,06,07,17,19,20.90